N2PUI Weather Reports


time (UTC)temp
C
wind
direction
speed
KPH
gust
KPH
rain 1hr
cm
rain 24hr
cm
rain mn
cm
humidity
%
barometer
mb
20260503043701 2 148 0.0 0.0 0.00 0.00 0.00 75 1014.2
20260503043159 2 148 0.0 0.0 0.00 0.00 0.00 75 1014.3
20260503042654 2 148 0.0 0.0 0.00 0.00 0.00 74 1014.5
20260503042151 3 148 0.0 0.0 0.00 0.00 0.00 74 1014.4
20260503041647 3 148 0.0 0.0 0.00 0.00 0.00 74 1014.1
20260503041145 3 141 0.0 0.0 0.00 0.00 0.00 74 1014.3
20260503040642 3 136 0.0 0.0 0.00 0.00 0.00 73 1014.3
20260503040140 3 125 1.6 3.2 0.00 0.00 0.00 73 1014.3
20260503035636 3 9 4.8 4.8 0.00 0.00 0.00 73 1014.3
20260503035134 3 109 1.6 1.6 0.00 0.00 0.00 72 1014.4
20260503034631 3 168 0.0 0.0 0.00 0.00 0.00 72 1014.3
20260503034128 3 125 1.6 1.6 0.00 0.00 0.00 72 1014.3
20260503033625 3 216 1.6 3.2 0.00 0.00 0.00 71 1014.3
20260503033122 3 144 0.0 1.6 0.00 0.00 0.00 71 1014.3
20260503032620 3 185 1.6 1.6 0.00 0.00 0.00 71 1014.4
20260503032119 3 27 1.6 1.6 0.00 0.00 0.00 71 1014.5
20260503031616 3 196 1.6 1.6 0.00 0.00 0.00 71 1014.3
20260503031114 3 306 4.8 4.8 0.00 0.00 0.00 70 1014.3
20260503030609 3 292 3.2 3.2 0.00 0.00 0.00 70 1014.5
20260503030106 3 196 1.6 1.6 0.00 0.00 0.00 70 1014.4
20260503025603 3 177 0.0 0.0 0.00 0.00 0.00 70 1014.4
20260503025101 4 181 1.6 1.6 0.00 0.00 0.00 70 1014.4
20260503024557 4 231 1.6 1.6 0.00 0.00 0.00 70 1014.5
20260503024054 4 317 8.0 11.3 0.00 0.00 0.00 69 1014.5
20260503023551 4 198 1.6 1.6 0.00 0.00 0.00 69 1014.7
20260503023048 4 234 3.2 3.2 0.00 0.00 0.00 69 1014.3
20260503022544 4 355 0.0 0.0 0.00 0.00 0.00 69 1014.4
20260503022039 4 244 4.8 4.8 0.00 0.00 0.00 69 1014.7
20260503021536 3 65 3.2 3.2 0.00 0.00 0.00 69 1014.4
20260503021033 4 156 0.0 0.0 0.00 0.00 0.00 68 1014.7
20260503020530 4 220 1.6 3.2 0.00 0.00 0.00 68 1014.5
20260503020027 4 183 1.6 1.6 0.00 0.00 0.00 67 1014.6
20260503015524 4 191 0.0 0.0 0.00 0.00 0.00 66 1014.5
20260503015021 5 294 1.6 3.2 0.00 0.00 0.00 66 1014.6
20260503014517 5 219 3.2 3.2 0.00 0.00 0.00 65 1014.5
20260503014015 5 231 1.6 1.6 0.00 0.00 0.00 65 1014.5
20260503013512 5 236 3.2 3.2 0.00 0.00 0.00 65 1014.3
20260503013010 5 217 3.2 3.2 0.00 0.00 0.00 65 1014.4
20260503012507 5 194 0.0 1.6 0.00 0.00 0.00 64 1014.3
20260503012003 5 298 3.2 4.8 0.00 0.00 0.00 64 1014.3
20260503011500 5 317 3.2 3.2 0.00 0.00 0.00 63 1014.5
20260503010957 5 281 4.8 9.7 0.00 0.00 0.00 63 1014.3
20260503010453 5 282 4.8 4.8 0.00 0.00 0.00 63 1014.2
20260503005951 5 216 1.6 3.2 0.00 0.00 0.00 65 1014.3
20260503005448 5 300 6.4 9.7 0.00 0.00 0.00 65 1014.1
20260503004944 5 273 3.2 3.2 0.00 0.00 0.00 64 1014.1
20260503004441 5 281 4.8 4.8 0.00 0.00 0.00 63 1013.8
20260503003939 5 280 4.8 4.8 0.00 0.00 0.00 62 1013.9
20260503003436 6 206 1.6 1.6 0.00 0.00 0.00 61 1014.1
20260503002933 6 294 6.4 8.0 0.00 0.00 0.00 60 1013.9
20260503002430 6 206 1.6 1.6 0.00 0.00 0.00 59 1014.0
20260503001926 6 266 4.8 4.8 0.00 0.00 0.00 58 1014.1
20260503001423 6 44 3.2 4.8 0.00 0.00 0.00 57 1013.9
20260503000921 6 291 6.4 8.0 0.00 0.00 0.00 57 1013.9
20260503000417 6 301 9.7 11.3 0.00 0.00 0.00 56 1013.8
20260502235914 6 210 3.2 3.2 0.00 0.00 0.00 56 1013.8
20260502235411 6 296 8.0 9.7 0.00 0.00 0.00 56 1013.8
20260502234909 6 288 4.8 8.0 0.00 0.00 0.00 56 1013.8
20260502234405 6 210 1.6 3.2 0.00 0.00 0.00 56 1013.7
20260502233902 6 6 4.8 4.8 0.00 0.00 0.00 55 1013.9
20260502233357 6 323 4.8 8.0 0.00 0.00 0.00 55 1013.7
20260502232855 6 179 1.6 1.6 0.00 0.00 0.00 54 1013.4
20260502232351 6 189 3.2 3.2 0.00 0.00 0.00 54 1013.8
20260502231848 6 260 1.6 3.2 0.00 0.00 0.00 53 1013.7
20260502231346 6 237 4.8 4.8 0.00 0.00 0.00 53 1013.8
20260502230844 7 226 1.6 3.2 0.00 0.00 0.00 54 1013.5
20260502230342 7 289 1.6 1.6 0.00 0.00 0.00 54 1013.5
20260502225838 7 276 4.8 4.8 0.00 0.00 0.00 52 1013.4
20260502225335 7 275 4.8 8.0 0.00 0.00 0.00 52 1013.4
20260502224832 7 203 1.6 1.6 0.00 0.00 0.00 52 1013.1
20260502224328 7 250 3.2 4.8 0.00 0.00 0.00 51 1013.0
20260502223825 7 300 4.8 8.0 0.00 0.00 0.00 51 1013.5
20260502223323 7 241 4.8 8.0 0.00 0.00 0.00 50 1013.4
20260502222821 7 309 4.8 4.8 0.00 0.00 0.00 51 1013.3
20260502222318 7 273 1.6 3.2 0.00 0.00 0.00 51 1013.4
20260502221813 7 82 3.2 3.2 0.00 0.00 0.00 52 1013.1
20260502221304 7 299 8.0 9.7 0.00 0.00 0.00 50 1013.3
20260502220802 7 11 4.8 8.0 0.00 0.00 0.00 51 1013.0
20260502220257 7 229 1.6 1.6 0.00 0.00 0.00 51 1013.3
20260502215754 7 278 6.4 14.5 0.00 0.00 0.00 51 1013.3
20260502215251 7 259 3.2 4.8 0.00 0.00 0.00 49 1012.9
20260502214748 8 252 4.8 8.0 0.00 0.00 0.00 51 1013.0
20260502214245 7 243 4.8 4.8 0.00 0.00 0.00 50 1013.1
20260502213742 7 239 4.8 8.0 0.00 0.00 0.00 51 1013.3
20260502213240 7 200 0.0 1.6 0.00 0.00 0.00 52 1013.1
20260502212739 7 223 4.8 4.8 0.00 0.00 0.00 51 1013.0
20260502212236 7 238 3.2 3.2 0.00 0.00 0.00 52 1013.1
20260502211732 7 199 0.0 1.6 0.00 0.00 0.00 51 1013.3
20260502211229 7 228 3.2 3.2 0.00 0.00 0.00 50 1013.0
20260502210726 7 199 0.0 1.6 0.00 0.00 0.00 52 1013.0
20260502210223 7 302 4.8 8.0 0.00 0.00 0.00 51 1013.4
20260502205721 7 310 8.0 8.0 0.00 0.00 0.00 50 1013.4
20260502205216 7 323 6.4 8.0 0.00 0.00 0.00 51 1013.3
20260502204714 8 265 6.4 9.7 0.00 0.00 0.00 51 1013.4
20260502204212 7 298 4.8 8.0 0.00 0.00 0.00 51 1013.4
20260502203709 7 233 6.4 9.7 0.00 0.00 0.00 51 1013.0
20260502203206 8 314 3.2 4.8 0.00 0.00 0.00 51 1013.3
20260502202700 7 199 1.6 1.6 0.00 0.00 0.00 50 1013.6
20260502202159 7 171 3.2 3.2 0.00 0.00 0.00 51 1013.6
20260502201656 7 241 6.4 8.0 0.00 0.00 0.00 49 1013.1
20260502201153 7 224 1.6 3.2 0.00 0.00 0.00 48 1013.5
20260502200648 7 315 8.0 9.7 0.00 0.00 0.00 49 1013.7
20260502200145 7 313 4.8 4.8 0.00 0.00 0.00 48 1013.6
20260502195643 8 304 9.7 11.3 0.00 0.00 0.00 48 1013.7
20260502195139 8 293 6.4 8.0 0.00 0.00 0.00 48 1013.7
20260502194636 8 283 3.2 3.2 0.00 0.00 0.00 47 1013.7
20260502194133 8 207 1.6 3.2 0.00 0.00 0.00 49 1013.7
20260502193629 8 258 3.2 3.2 0.00 0.00 0.00 48 1013.9
20260502193127 7 320 8.0 9.7 0.00 0.00 0.00 47 1013.9
20260502192622 8 289 4.8 4.8 0.00 0.00 0.00 48 1013.8
20260502192120 8 309 9.7 12.9 0.00 0.00 0.00 46 1013.7
20260502191616 8 287 8.0 11.3 0.00 0.00 0.00 46 1014.1
20260502191114 8 347 4.8 4.8 0.00 0.00 0.00 46 1013.7
20260502190611 8 261 8.0 9.7 0.00 0.00 0.00 45 1013.6
20260502190109 8 291 6.4 9.7 0.00 0.00 0.00 46 1013.9
20260502185603 8 294 8.0 11.3 0.00 0.00 0.00 45 1013.8
20260502185100 8 215 3.2 3.2 0.00 0.00 0.00 45 1013.9
20260502184556 8 271 3.2 3.2 0.00 0.00 0.00 45 1013.8
20260502184051 8 154 0.0 0.0 0.00 0.00 0.00 46 1013.9
20260502183548 8 114 0.0 0.0 0.00 0.00 0.00 45 1013.7
20260502183044 8 195 1.6 3.2 0.00 0.00 0.00 44 1014.0
20260502182540 8 186 1.6 3.2 0.00 0.00 0.00 46 1014.0
20260502182036 8 210 1.6 3.2 0.00 0.00 0.00 45 1014.0
20260502181534 8 230 4.8 4.8 0.00 0.00 0.00 46 1014.1
20260502181032 8 239 4.8 4.8 0.00 0.00 0.00 45 1014.2
20260502180528 8 234 11.3 12.9 0.00 0.00 0.00 45 1014.0
20260502170442 8 214 3.2 3.2 0.00 0.00 0.00 45 1014.0
20260502163925 10 281 8.0 9.7 0.00 0.00 0.00 40 1014.3
20260502163422 8 218 4.8 4.8 0.00 0.00 0.00 47 1014.2
20260502162920 8 11 9.7 11.3 0.00 0.00 0.00 46 1014.1
20260502162416 8 256 9.7 12.9 0.00 0.00 0.00 44 1014.3
20260502161913 8 212 6.4 9.7 0.00 0.00 0.00 48 1014.1
20260502161409 8 67 8.0 11.3 0.00 0.00 0.00 45 1014.3
20260502160907 9 308 4.8 4.8 0.00 0.00 0.00 46 1014.1
20260502160405 8 239 4.8 9.7 0.00 0.00 0.00 47 1014.4
20260502152340 8 215 8.0 11.3 0.00 0.00 0.00 46 1014.0
20260502151838 7 258 11.3 14.5 0.00 0.00 0.00 46 1014.4
20260502151334 7 233 9.7 12.9 0.00 0.00 0.00 45 1014.2
20260502150832 8 315 8.0 11.3 0.00 0.00 0.00 48 1014.3
20260502150328 8 284 8.0 11.3 0.00 0.00 0.00 48 1014.1
20260502130716 5 347 6.4 9.7 0.00 0.00 0.00 70 1014.8
20260502130214 5 250 6.4 8.0 0.00 0.00 0.00 70 1014.8
20260502123700 5 289 1.6 3.2 0.00 0.00 0.00 71 1014.7
20260502123156 5 241 4.8 8.0 0.00 0.00 0.00 71 1014.4
20260502122653 5 221 3.2 4.8 0.00 0.00 0.00 71 1014.6
20260502122149 5 315 4.8 8.0 0.00 0.00 0.00 71 1014.6
20260502121648 5 334 4.8 8.0 0.00 0.00 0.00 72 1014.6
20260502121145 5 322 8.0 9.7 0.00 0.00 0.00 73 1014.7
20260502120641 5 228 4.8 4.8 0.00 0.00 0.00 76 1014.7
20260502120139 5 109 3.2 4.8 0.00 0.00 0.00 77 1014.5
20260502115636 5 305 4.8 9.7 0.00 0.00 0.00 77 1014.5
20260502115132 5 250 6.4 8.0 0.00 0.00 0.00 77 1014.7
20260502114628 5 247 6.4 9.7 0.00 0.00 0.00 78 1014.5
20260502114126 5 315 11.3 12.9 0.00 0.00 0.00 79 1014.7
20260502113623 5 280 3.2 4.8 0.00 0.00 0.00 80 1014.8
20260502113121 4 306 4.8 8.0 0.00 0.00 0.00 81 1014.6
20260502112619 4 292 3.2 3.2 0.00 0.00 0.00 82 1014.5
20260502112116 3 299 6.4 8.0 0.00 0.00 0.00 83 1014.5
20260502111613 3 202 1.6 1.6 0.00 0.00 0.00 83 1014.5
20260502111111 3 236 3.2 3.2 0.00 0.00 0.00 84 1014.5
20260502110608 3 193 3.2 4.8 0.00 0.00 0.00 85 1014.4
20260502110106 3 211 1.6 3.2 0.00 0.00 0.00 85 1014.5
20260502105603 3 279 6.4 8.0 0.00 0.00 0.00 86 1014.4
20260502105100 3 265 4.8 4.8 0.00 0.00 0.00 86 1014.2
20260502104557 3 182 1.6 1.6 0.00 0.00 0.00 86 1014.0
20260502104054 3 186 1.6 1.6 0.00 0.00 0.00 86 1014.1
20260502103552 3 231 4.8 8.0 0.00 0.00 0.00 87 1014.1
20260502103050 3 312 11.3 12.9 0.00 0.00 0.00 87 1013.9
20260502102546 3 310 6.4 9.7 0.00 0.00 0.00 88 1013.8
20260502102043 3 324 4.8 4.8 0.00 0.00 0.00 89 1014.1
20260502101541 3 273 3.2 3.2 0.00 0.00 0.00 89 1014.0
20260502101039 3 301 3.2 4.8 0.00 0.00 0.00 90 1013.9
20260502100537 3 289 4.8 8.0 0.00 0.00 0.00 90 1013.8
20260502091512 3 144 0.0 1.6 0.00 0.00 0.00 89 1013.6
20260502091009 3 176 0.0 1.6 0.00 0.00 0.00 89 1013.4
20260502090506 4 150 0.0 1.6 0.00 0.00 0.00 89 1013.4
20260502071401 4 182 0.0 0.0 0.00 0.00 0.00 91 1012.8
20260502070859 4 313 4.8 4.8 0.00 0.00 0.00 91 1013.0
20260502070356 4 180 1.6 1.6 0.00 0.00 0.00 91 1012.8
20260502065855 4 300 4.8 4.8 0.00 0.00 0.00 91 1012.8
20260502065353 4 297 6.4 8.0 0.00 0.00 0.00 91 1012.9
20260502064850 4 263 3.2 4.8 0.00 0.00 0.00 91 1012.9
20260502064348 4 254 3.2 3.2 0.00 0.00 0.00 92 1012.9
20260502063845 4 232 3.2 3.2 0.00 0.00 0.00 92 1012.9
20260502063343 4 317 4.8 4.8 0.00 0.00 0.00 92 1012.7
20260502062840 4 194 1.6 1.6 0.00 0.00 0.00 92 1013.0
20260502062337 4 213 4.8 4.8 0.00 0.00 0.00 92 1012.9
20260502061836 4 147 1.6 1.6 0.00 0.00 0.00 92 1012.9
20260502061333 4 286 1.6 3.2 0.00 0.00 0.00 92 1012.9
20260502060829 4 26 3.2 3.2 0.00 0.00 0.00 92 1012.9
20260502060324 4 281 4.8 4.8 0.00 0.00 0.00 92 1013.3
20260502055822 4 228 4.8 8.0 0.00 0.00 0.00 92 1012.9
20260502055320 4 307 6.4 8.0 0.00 0.00 0.00 92 1012.7
20260502054819 4 318 4.8 11.3 0.00 0.00 0.00 92 1012.6
20260502054316 4 313 9.7 12.9 0.00 0.00 0.00 92 1012.8
20260502053814 4 195 1.6 1.6 0.00 0.00 0.00 93 1012.8
20260502053311 5 303 6.4 11.3 0.00 0.00 0.00 93 1012.7
20260502052809 5 181 1.6 1.6 0.00 0.00 0.00 93 1012.8
20260502052306 5 314 9.7 12.9 0.00 0.00 0.00 93 1012.8
20260502051804 5 159 0.0 1.6 0.00 0.00 0.00 93 1012.8
20260502051303 5 90 3.2 3.2 0.00 0.00 0.00 93 1012.8
20260502050758 5 221 4.8 4.8 0.00 0.00 0.00 93 1013.0
20260502050254 5 205 1.6 1.6 0.00 0.00 0.00 93 1012.9
20260502045752 5 287 1.6 3.2 0.00 0.00 0.00 93 1013.1
20260502045248 5 142 0.0 0.0 0.00 0.00 0.00 93 1013.0
20260502044745 5 284 1.6 3.2 0.00 0.00 0.00 93 1013.1
20260502044241 5 216 4.8 8.0 0.00 0.00 0.00 93 1012.8
20260502043739 5 282 8.0 9.7 0.00 0.00 0.00 93 1013.0